User: anonymous   Login
Location: Antichan
(42.9728°N, 0.6667°E)
Time: 11:45:05
(UTC+00:00)
Language:

SL-4 R/B - Orbit

View from above orbital plane
View from above orbital plane
View from above satellite
View from above satellite

Ground track
Ground track

The orbit data is extracted from the following two-line orbital elements,

1 39679U 14021B   20293.36607944 +.00000756 +00000-0 +54356-4 0  9992
2 39679 051.6154 252.3371 0171823 015.3702 345.2396 15.06531116358020
Epoch (UTC): 19 October 2020 08:47:09
Eccentricity: 0.0171823
inclination: 51.6154°
perigee height: 428 km
apogee height: 666 km
right ascension of ascending node: 252.3371°
argument of perigee: 15.3702°
revolutions per day: 15.06531116
mean anomaly at epoch: 345.2396°
orbit number at epoch: 35802

The dashed part of the orbit path shows where the satellite is in the earth's shadow,  

DLR